This demonstration page uses our WeatherBlox Daily Observations layout. Learn more.

36.17497, -115.13722

Hourly Observations for July 24, 2018

Temp ( °F °C ) Dew Point ( °F °C ) Humidity (%) Winds ( mph kmh ) Pressure ( in mb ) Visibility ( mi km ) Precip ( " mm )
12:53 am 00:53 Clear 95 35 51 10.6 23 23 WNW 3 6 29.83 1010 10 16.09344 0 0
1:53 am 01:53 Clear 94 34.4 51 10.6 23 23 NW 6 9 29.83 1010 10 16.09344 0 0
2:53 am 02:53 Clear 93 33.9 51 10.6 24 24 SW 5 7 29.83 1010 10 16.09344 0 0
3:53 am 03:53 Clear 95 35 49 9.4 21 21 NNW 6 9 29.83 1010 10 16.09344 0 0
4:53 am 04:53 Clear 94 34.4 47 8.3 20 20 N 9 15 29.85 1011 10 16.09344 0 0
5:53 am 05:53 Sunny 92 33.3 48 8.9 22 22 Calm 29.85 1011 10 16.09344 0 0
6:53 am 06:53 Sunny 94 34.4 49 9.4 21 21 SW 5 7 29.88 1012 10 16.09344 0 0
7:53 am 07:53 Sunny 95 35 49 9.4 21 21 NNW 3 6 29.91 1013 10 16.09344 0 0
8:53 am 08:53 Sunny 98 36.7 48 8.9 18 18 NNW 7 11 29.91 1013 10 16.09344 0 0
9:53 am 09:53 Sunny 102 38.9 48 8.9 16 16 SE 5 7 29.91 1013 10 16.09344 0 0
10:53 am 10:53 Sunny 103 39.4 49 9.4 16 16 Calm 29.91 1013 10 16.09344 0 0
11:53 am 11:53 Sunny 107 41.7 48 8.9 14 14 NNE 7 11 29.88 1012 10 16.09344 0 0
12:53 pm 12:53 Sunny 108 42.2 47 8.3 13 13 N 6 9 29.85 1011 10 16.09344 0 0
1:53 pm 13:53 Sunny 110 43.3 47 8.3 12 12 NW 8 13 29.85 1011 10 16.09344 0 0
2:48 pm 14:48 Sunny 102 39 52 11 18 18 SSW 17 28 29.74 1007 10 16.09344 0 0
2:53 pm 14:53 Sunny 104 40 49 9.4 16 16 SSW 23 37 29.85 1011 10 16.09344 0 0
3:15 pm 15:15 Mostly Cloudy with Light Rain 104 40 46 7.8 14 14 ENE 16 26 29.71 1006 10 16.09344 0.001 0.001
3:32 pm 15:32 Mostly Cloudy with Nearby Thunderstorms 105 40.6 45 7.2 13 13 Calm 29.68 1005 10 16.09344 0.001 0.001
3:50 pm 15:50 Mostly Sunny 106 41 45 7 13 13 S 5 7 29.68 1005 10 16.09344 0.001 0.001
3:53 pm 15:53 Mostly Sunny 107 41.7 44 6.7 12 12 SSW 5 7 29.83 1010 10 16.09344 0.001 0.001
4:01 pm 16:01 Sunny with Nearby Thunderstorms 107 41.7 46 7.8 13 13 SW 7 11 29.68 1005 10 16.09344 0 0
4:23 pm 16:23 Sunny 107 41.7 45 7.2 12 12 WSW 5 7 29.68 1005 10 16.09344 0 0
4:53 pm 16:53 Sunny with Nearby Thunderstorms 106 41.1 48 8.9 14 14 W 12 19 29.83 1010 10 16.09344 0 0
5:09 pm 17:09 Sunny 106 41.1 47 8.3 14 14 W 10 17 29.68 1005 10 16.09344 0 0
5:53 pm 17:53 Sunny 106 41.1 48 8.9 14 14 W 7 11 29.83 1010 10 16.09344 0 0
6:53 pm 18:53 Sunny 108 42.2 47 8.3 13 13 Calm 29.83 1010 10 16.09344 0 0
7:53 pm 19:53 Clear 105 40.6 48 8.9 15 15 SSW 3 6 29.83 1010 10 16.09344 0 0
8:53 pm 20:53 Clear 102 38.9 49 9.4 17 17 Calm 29.85 1011 10 16.09344 0 0
9:53 pm 21:53 Clear 100 37.8 50 10 18 18 W 3 6 29.85 1011 10 16.09344 0 0
10:53 pm 22:53 Clear 96 35.6 51 10.6 22 22 N 6 9 29.85 1011 10 16.09344 0 0
11:53 pm 23:53 Clear 98 36.7 50 10 20 20 ENE 9 15 29.88 1012 10 16.09344 0 0

Powered by AerisWeather